• In Uzbekistan
  • List of Countries
  • For 7 days
  • Water Temperature
  • Satellite Maps
  • Weather Map
  • Weather Widgets
  • user-avatar
    Login

    Hourly Weather Yomra

    Today, 17 October, Tuesday

    Time Temperature Precipitation Wind Pressure Humidity
    00:00 +13°C° 0.3 mm 6 mps 767 mmHg 85%
    01:00 +11°C° 0.2 mm 6 mps 767 mmHg 85%
    02:00 +11°C° 0.2 mm 6 mps 768 mmHg 84%
    03:00 +12°C° 0.2 mm 5 mps 768 mmHg 84%
    04:00 +12°C° 0.2 mm 5 mps 768 mmHg 82%
    05:00 +12°C° 0.2 mm 5 mps 768 mmHg 81%
    06:00 +12°C° 0.2 mm 5 mps 768 mmHg 79%
    07:00 +13°C° 0.2 mm 5 mps 768 mmHg 78%
    08:00 +14°C° 0.2 mm 5 mps 768 mmHg 76%
    09:00 +14°C° 0.2 mm 5 mps 768 mmHg 75%
    10:00 +15°C° 0.2 mm 5 mps 768 mmHg 74%
    11:00 +16°C° 0.2 mm 5 mps 768 mmHg 73%
    12:00 +16°C° 0.2 mm 5 mps 768 mmHg 73%
    13:00 +17°C° 0.1 mm 4 mps 768 mmHg 73%
    14:00 +18°C° 0.1 mm 4 mps 768 mmHg 73%
    15:00 +18°C° 0.1 mm 4 mps 768 mmHg 73%
    16:00 +17°C° 0.1 mm 4 mps 768 mmHg 75%
    17:00 +17°C° 0.1 mm 3 mps 768 mmHg 78%
    18:00 +16°C° 0.1 mm 3 mps 768 mmHg 80%
    19:00 +16°C° 0.1 mm 3 mps 769 mmHg 79%
    20:00 +14°C° 0.1 mm 3 mps 769 mmHg 79%
    21:00 +14°C° 0.1 mm 3 mps 769 mmHg 79%
    22:00 +14°C° 0.1 mm 3 mps 769 mmHg 78%
    23:00 +14°C° 0.1 mm 3 mps 769 mmHg 77%

    Tomorrow, 18 October, Wednesday

    Time Temperature Precipitation Wind Pressure Humidity
    00:00 +14°C° 0.1 mm 3 mps 769 mmHg 76%
    01:00 +14°C° 0 mm 3 mps 769 mmHg 75%
    02:00 +14°C° 0 mm 3 mps 769 mmHg 74%
    03:00 +15°C° 0 mm 2 mps 768 mmHg 74%
    04:00 +14°C° 0 mm 2 mps 768 mmHg 73%
    05:00 +14°C° 0 mm 2 mps 768 mmHg 73%
    06:00 +14°C° 0 mm 2 mps 768 mmHg 73%
    07:00 +16°C° 0 mm 2 mps 768 mmHg 69%
    08:00 +17°C° 0 mm 2 mps 768 mmHg 66%
    09:00 +20°C° 0 mm 1 mps 768 mmHg 62%
    10:00 +21°C° 0 mm 1 mps 767 mmHg 61%
    11:00 +20°C° 0 mm 2 mps 767 mmHg 60%
    12:00 +21°C° 0 mm 2 mps 767 mmHg 59%
    13:00 +21°C° 0 mm 2 mps 766 mmHg 60%
    14:00 +21°C° 0 mm 2 mps 766 mmHg 62%
    15:00 +21°C° 0 mm 2 mps 766 mmHg 63%
    16:00 +19°C° 0 mm 2 mps 766 mmHg 69%
    17:00 +18°C° 0 mm 2 mps 766 mmHg 74%
    18:00 +17°C° 0 mm 2 mps 766 mmHg 80%
    19:00 +16°C° 0 mm 2 mps 766 mmHg 79%
    20:00 +16°C° 0 mm 2 mps 766 mmHg 78%
    21:00 +16°C° 0 mm 2 mps 766 mmHg 77%
    22:00 +16°C° 0 mm 2 mps 766 mmHg 75%
    23:00 +16°C° 0 mm 2 mps 766 mmHg 73%

    Day after tomorrow, 19 October, Thursday

    Time Temperature Precipitation Wind Pressure Humidity
    00:00 +16°C° 0 mm 2 mps 765 mmHg 72%
    01:00 +16°C° 0 mm 2 mps 765 mmHg 71%
    02:00 +16°C° 0 mm 2 mps 765 mmHg 69%
    03:00 +16°C° 0 mm 2 mps 765 mmHg 68%
    04:00 +16°C° 0 mm 2 mps 765 mmHg 68%
    05:00 +16°C° 0 mm 2 mps 765 mmHg 67%
    06:00 +16°C° 0 mm 2 mps 765 mmHg 67%
    07:00 +18°C° 0 mm 2 mps 765 mmHg 64%
    08:00 +19°C° 0 mm 2 mps 765 mmHg 61%
    09:00 +21°C° 0 mm 2 mps 765 mmHg 58%
    10:00 +23°C° 0 mm 2 mps 765 mmHg 57%
    11:00 +24°C° 0 mm 2 mps 764 mmHg 56%
    12:00 +24°C° 0 mm 3 mps 764 mmHg 55%
    13:00 +24°C° 0 mm 2 mps 764 mmHg 56%
    14:00 +24°C° 0 mm 2 mps 763 mmHg 57%
    15:00 +24°C° 0 mm 2 mps 763 mmHg 58%
    16:00 +23°C° 0 mm 2 mps 763 mmHg 64%
    17:00 +21°C° 0 mm 1 mps 763 mmHg 70%
    18:00 +19°C° 0 mm 1 mps 763 mmHg 76%
    19:00 +19°C° 0 mm 1 mps 763 mmHg 72%
    20:00 +19°C° 0 mm 1 mps 763 mmHg 68%
    21:00 +19°C° 0 mm 1 mps 763 mmHg 64%
    22:00 +19°C° 0 mm 1 mps 763 mmHg 62%
    23:00 +18°C° 0 mm 2 mps 763 mmHg 59%

    20 October, Friday

    Time Temperature Precipitation Wind Pressure Humidity
    00:00 +18°C° 0 mm 2 mps 763 mmHg 57%
    01:00 +18°C° 0 mm 2 mps 763 mmHg 55%
    02:00 +18°C° 0 mm 2 mps 763 mmHg 54%
    03:00 +17°C° 0 mm 2 mps 763 mmHg 53%
    04:00 +17°C° 0 mm 2 mps 763 mmHg 53%
    05:00 +17°C° 0 mm 2 mps 763 mmHg 52%
    06:00 +17°C° 0 mm 2 mps 763 mmHg 52%
    07:00 +20°C° 0 mm 1 mps 764 mmHg 50%
    08:00 +21°C° 0 mm 1 mps 764 mmHg 49%
    09:00 +21°C° 0 mm 0 mps 764 mmHg 47%
    10:00 +24°C° 0 mm 1 mps 764 mmHg 47%
    11:00 +25°C° 0 mm 1 mps 764 mmHg 47%
    12:00 +25°C° 0 mm 1 mps 763 mmHg 47%
    13:00 +25°C° 0 mm 1 mps 763 mmHg 50%
    14:00 +25°C° 0 mm 1 mps 763 mmHg 53%
    15:00 +25°C° 0 mm 1 mps 763 mmHg 55%
    16:00 +23°C° 0 mm 1 mps 763 mmHg 63%
    17:00 +22°C° 0 mm 1 mps 763 mmHg 71%
    18:00 +20°C° 0 mm 1 mps 763 mmHg 78%
    19:00 +20°C° 0 mm 1 mps 764 mmHg 77%
    20:00 +20°C° 0 mm 1 mps 764 mmHg 76%
    21:00 +19°C° 0 mm 1 mps 764 mmHg 75%
    22:00 +19°C° 0 mm 1 mps 764 mmHg 73%
    23:00 +19°C° 0 mm 1 mps 764 mmHg 70%

    21 October, Saturday

    Time Temperature Precipitation Wind Pressure Humidity
    00:00 +19°C° 0 mm 1 mps 764 mmHg 68%
    01:00 +18°C° 0 mm 1 mps 764 mmHg 67%
    02:00 +18°C° 0 mm 1 mps 764 mmHg 66%
    03:00 +18°C° 0 mm 1 mps 764 mmHg 64%
    04:00 +18°C° 0 mm 1 mps 764 mmHg 63%
    05:00 +18°C° 0 mm 1 mps 764 mmHg 63%
    06:00 +18°C° 0 mm 1 mps 764 mmHg 62%
    07:00 +19°C° 0 mm 1 mps 764 mmHg 57%
    08:00 +21°C° 0 mm 1 mps 764 mmHg 52%
    09:00 +21°C° 0 mm 0 mps 764 mmHg 48%
    10:00 +24°C° 0 mm 1 mps 764 mmHg 46%
    11:00 +24°C° 0 mm 1 mps 764 mmHg 45%
    12:00 +25°C° 0 mm 1 mps 763 mmHg 44%
    13:00 +25°C° 0 mm 1 mps 763 mmHg 46%
    14:00 +25°C° 0 mm 1 mps 763 mmHg 48%
    15:00 +25°C° 0 mm 1 mps 762 mmHg 50%
    16:00 +23°C° 0 mm 1 mps 762 mmHg 58%
    17:00 +21°C° 0 mm 1 mps 762 mmHg 65%
    18:00 +20°C° 0 mm 1 mps 763 mmHg 72%
    19:00 +20°C° 0 mm 1 mps 763 mmHg 71%
    20:00 +19°C° 0 mm 1 mps 763 mmHg 70%
    21:00 +19°C° 0 mm 1 mps 763 mmHg 69%
    22:00 +19°C° 0 mm 1 mps 763 mmHg 68%
    23:00 +19°C° 0 mm 1 mps 763 mmHg 67%

    22 October, Sunday

    Time Temperature Precipitation Wind Pressure Humidity
    00:00 +18°C° 0 mm 1 mps 763 mmHg 65%
    01:00 +18°C° 0 mm 1 mps 763 mmHg 64%
    02:00 +18°C° 0 mm 1 mps 763 mmHg 63%
    03:00 +18°C° 0 mm 1 mps 763 mmHg 61%
    04:00 +18°C° 0 mm 1 mps 763 mmHg 60%
    05:00 +18°C° 0 mm 1 mps 763 mmHg 59%
    06:00 +18°C° 0 mm 1 mps 763 mmHg 58%
    07:00 +19°C° 0 mm 1 mps 763 mmHg 55%
    08:00 +21°C° 0 mm 1 mps 763 mmHg 51%
    09:00 +23°C° 0 mm 1 mps 763 mmHg 48%
    10:00 +23°C° 0 mm 1 mps 762 mmHg 48%
    11:00 +24°C° 0 mm 1 mps 762 mmHg 47%
    12:00 +25°C° 0 mm 1 mps 762 mmHg 47%
    13:00 +25°C° 0 mm 1 mps 761 mmHg 49%
    14:00 +25°C° 0 mm 1 mps 761 mmHg 51%
    15:00 +24°C° 0 mm 2 mps 761 mmHg 53%
    16:00 +23°C° 0 mm 1 mps 761 mmHg 60%
    17:00 +21°C° 0 mm 1 mps 761 mmHg 68%
    18:00 +20°C° 0 mm 1 mps 761 mmHg 75%
    19:00 +20°C° 0 mm 1 mps 761 mmHg 74%
    20:00 +19°C° 0 mm 1 mps 761 mmHg 72%
    21:00 +19°C° 0 mm 1 mps 761 mmHg 70%
    22:00 +19°C° 0 mm 1 mps 761 mmHg 67%
    23:00 +19°C° 0 mm 1 mps 761 mmHg 64%
    Show more